Terug naar catalogus

METEOR 2-5 DEB

ActiefPO
NORAD 36923·DEBRIS·🇷🇺 Russia

Gelanceerd Oct 31, 1979 vanaf Plesetsk Cosmodrome

Loading…

Volgende Passages (komende 24 uur)

TLE

VerouderendSource: Space-Track

Epoch: Sep 9, 2026, 00:08 UTC

1 36923U 79095BQ  26252.00564970  .00008048  00000-0  18030-2 0  9995
2 36923  81.1886 349.8117 0005013 242.0770 117.9919 14.56567779 37588

Volg METEOR 2-5 DEB in realtime met AllMySat

Download on the App Store